KM4KMS Weather Reports


time (UTC)temp
C
wind
direction
speed
KPH
gust
KPH
rain 1hr
cm
rain 24hr
cm
rain mn
cm
humidity
%
barometer
mb
20260502170108 11 282 1.6 8.0 0.00 0.00 0.00 56 1016.9
20260502164055 11 21 3.2 3.2 0.00 0.00 0.00 57 1017.1
20260502163550 12 348 6.4 9.7 0.00 0.00 0.00 58 1017.3
20260502163048 11 353 6.4 8.0 0.00 0.00 0.00 57 1017.1
20260502162545 12 325 6.4 9.7 0.00 0.00 0.00 58 1017.2
20260502162042 11 2 1.6 8.0 0.00 0.00 0.00 62 1017.5
20260502161538 11 356 3.2 3.2 0.00 0.00 0.00 59 1017.2
20260502161036 12 11 4.8 4.8 0.00 0.00 0.00 57 1017.3
20260502160534 12 347 9.7 11.3 0.00 0.00 0.00 60 1017.4
20260502151936 11 114 4.8 4.8 0.00 0.00 0.00 60 1017.2
20260502151432 11 148 8.0 11.3 0.00 0.00 0.00 61 1017.2
20260502150930 12 134 4.8 4.8 0.00 0.00 0.00 59 1017.6
20260502150427 12 67 0.0 3.2 0.00 0.00 0.00 57 1017.4
20260502130312 7 68 3.2 8.0 0.00 0.00 0.00 75 1017.0
20260502123758 7 43 0.0 1.6 0.00 0.00 0.00 82 1017.1
20260502123255 7 30 0.0 1.6 0.00 0.00 0.00 80 1017.1
20260502122751 7 23 1.6 1.6 0.00 0.00 0.00 83 1016.9
20260502122247 6 65 0.0 1.6 0.00 0.00 0.00 83 1017.2
20260502121746 6 72 1.6 4.8 0.00 0.00 0.00 88 1017.0
20260502121243 5 74 1.6 3.2 0.00 0.00 0.00 87 1017.0
20260502120740 6 87 0.0 1.6 0.00 0.00 0.00 86 1017.0
20260502120237 6 73 0.0 1.6 0.00 0.00 0.00 86 1016.9
20260502115734 5 57 0.0 0.0 0.00 0.00 0.00 89 1017.1
20260502115231 5 51 0.0 0.0 0.00 0.00 0.00 89 1016.9
20260502114727 4 29 0.0 0.0 0.00 0.00 0.00 94 1016.7
20260502114224 3 68 0.0 1.6 0.00 0.00 0.00 95 1016.7
20260502113721 3 106 3.2 3.2 0.00 0.00 0.00 95 1016.7
20260502113219 3 111 4.8 4.8 0.00 0.00 0.00 94 1016.6
20260502112717 3 66 0.0 1.6 0.00 0.00 0.00 93 1016.9
20260502112214 3 58 0.0 0.0 0.00 0.00 0.00 94 1017.0
20260502111711 3 61 0.0 0.0 0.00 0.00 0.00 95 1016.6
20260502111209 3 51 0.0 0.0 0.00 0.00 0.00 96 1016.6
20260502110706 2 27 0.0 0.0 0.00 0.00 0.00 97 1016.6
20260502110204 2 27 0.0 0.0 0.00 0.00 0.00 96 1016.6
20260502105702 2 26 0.0 1.6 0.00 0.00 0.00 96 1016.3
20260502105157 3 27 0.0 0.0 0.00 0.00 0.00 95 1016.3
20260502104655 3 70 1.6 1.6 0.00 0.00 0.00 95 1016.1
20260502104153 3 64 1.6 0.0 0.00 0.00 0.00 94 1016.3
20260502103650 3 62 0.0 1.6 0.00 0.00 0.00 94 1016.4
20260502103148 3 45 0.0 0.0 0.00 0.00 0.00 95 1016.1
20260502102644 3 59 1.6 1.6 0.00 0.00 0.00 95 1016.2
20260502102141 3 17 0.0 0.0 0.00 0.00 0.00 97 1016.6
20260502101639 3 16 0.0 0.0 0.00 0.00 0.00 96 1016.4
20260502101137 3 16 0.0 0.0 0.00 0.00 0.00 95 1016.2
20260502100635 3 17 0.0 0.0 0.00 0.00 0.00 95 1016.3
20260502100133 3 17 0.0 0.0 0.00 0.00 0.00 96 1016.3
20260502091107 3 8 0.0 0.0 0.00 0.00 0.00 94 1016.2
20260502090604 3 8 0.0 0.0 0.00 0.00 0.00 93 1016.5
20260502071459 2 1 0.0 0.0 0.00 0.00 0.00 99 1015.9
20260502070956 2 1 0.0 0.0 0.00 0.00 0.00 99 1015.8
20260502070455 3 1 0.0 0.0 0.00 0.00 0.00 99 1015.7
20260502065953 2 1 0.0 0.0 0.00 0.00 0.00 99 1015.9
20260502065451 3 1 0.0 1.6 0.00 0.00 0.00 98 1015.9
20260502064949 3 1 0.0 0.0 0.00 0.00 0.00 98 1016.2
20260502064446 3 1 0.0 0.0 0.00 0.00 0.00 98 1016.0
20260502063943 2 1 0.0 0.0 0.00 0.00 0.00 97 1016.3
20260502063441 3 1 0.0 0.0 0.00 0.00 0.00 96 1016.3
20260502062938 3 1 0.0 0.0 0.00 0.00 0.00 95 1016.2
20260502062435 3 1 0.0 0.0 0.00 0.00 0.00 95 1016.2
20260502061934 3 1 0.0 1.6 0.00 0.00 0.00 93 1016.0
20260502061431 3 354 0.0 0.0 0.00 0.00 0.00 93 1016.3
20260502060927 3 354 0.0 0.0 0.00 0.00 0.00 94 1016.5
20260502060422 3 354 0.0 0.0 0.00 0.00 0.00 94 1016.3
20260502055919 3 350 0.0 0.0 0.00 0.00 0.00 95 1016.4
20260502055417 3 350 0.0 0.0 0.00 0.00 0.00 94 1016.5
20260502054912 3 350 0.0 0.0 0.00 0.00 0.00 93 1016.7
20260502054409 3 350 0.0 0.0 0.00 0.00 0.00 92 1016.8
20260502053906 3 350 0.0 0.0 0.00 0.00 0.00 92 1016.7
20260502053405 3 350 0.0 0.0 0.00 0.00 0.00 91 1016.8
20260502052901 4 350 0.0 1.6 0.00 0.00 0.00 90 1016.7
20260502052359 5 347 1.6 1.6 0.00 0.00 0.00 88 1016.5
20260502051856 4 347 0.0 1.6 0.00 0.00 0.00 90 1016.5
20260502051355 5 347 0.0 0.0 0.00 0.00 0.00 90 1016.4
20260502050851 5 347 0.0 0.0 0.00 0.00 0.00 89 1016.6
20260502050347 5 346 1.6 1.6 0.00 0.00 0.00 90 1016.5
20260502045844 3 343 0.0 1.6 0.00 0.00 0.00 93 1016.7
20260502045341 4 343 1.6 3.2 0.00 0.00 0.00 90 1016.6
20260502044838 5 352 0.0 0.0 0.00 0.00 0.00 89 1016.6
20260502044334 4 352 0.0 0.0 0.00 0.00 0.00 89 1016.5
20260502043832 5 352 0.0 0.0 0.00 0.00 0.00 87 1016.6
20260502043329 5 349 0.0 1.6 0.00 0.00 0.00 88 1016.6
20260502042829 5 349 0.0 0.0 0.00 0.00 0.00 87 1016.6
20260502042326 5 349 0.0 1.6 0.00 0.00 0.00 87 1016.6
20260502041824 5 348 0.0 0.0 0.00 0.00 0.00 86 1016.6
20260502041320 5 346 0.0 0.0 0.00 0.00 0.00 85 1016.8
20260502040818 5 342 0.0 1.6 0.00 0.00 0.00 86 1016.6
20260502040314 5 346 1.6 1.6 0.00 0.00 0.00 85 1016.6
20260502035810 5 349 1.6 1.6 0.00 0.00 0.00 84 1016.7
20260502035307 5 357 0.0 1.6 0.00 0.00 0.00 86 1016.7
20260502034804 5 357 0.0 0.0 0.00 0.00 0.00 85 1016.5
20260502034303 5 358 0.0 0.0 0.00 0.00 0.00 84 1016.5
20260502033801 5 358 0.0 0.0 0.00 0.00 0.00 82 1016.3
20260502033258 6 358 0.0 0.0 0.00 0.00 0.00 81 1016.5
20260502032755 6 358 0.0 0.0 0.00 0.00 0.00 80 1016.4
20260502032251 6 358 0.0 1.6 0.00 0.00 0.00 79 1016.7
20260502031749 7 357 0.0 0.0 0.00 0.00 0.00 77 1016.9
20260502031246 7 357 0.0 0.0 0.00 0.00 0.00 77 1016.7
20260502030745 7 356 3.2 3.2 0.00 0.00 0.00 77 1016.8
20260502030243 7 355 3.2 3.2 0.00 0.00 0.00 78 1016.6
20260502025740 7 349 3.2 4.8 0.00 0.00 0.00 78 1017.0
20260502025238 7 342 3.2 3.2 0.00 0.00 0.00 78 1016.8
20260502024735 7 342 3.2 3.2 0.00 0.00 0.00 78 1016.7
20260502024233 7 354 1.6 3.2 0.00 0.00 0.00 76 1016.9
20260502023731 7 348 1.6 3.2 0.00 0.00 0.00 76 1016.7
20260502023228 7 5 0.0 0.0 0.00 0.00 0.00 76 1016.7
20260502022726 7 5 1.6 1.6 0.00 0.00 0.00 76 1016.4
20260502022222 7 5 0.0 1.6 0.00 0.00 0.00 76 1016.7
20260502021719 8 6 0.0 0.0 0.00 0.00 0.00 75 1016.9
20260502021216 8 5 0.0 0.0 0.00 0.00 0.00 73 1016.5
20260502020713 8 6 0.0 0.0 0.00 0.00 0.00 74 1016.3
20260502020210 8 6 0.0 0.0 0.00 0.00 0.00 74 1015.9
20260502015709 9 5 0.0 1.6 0.00 0.00 0.00 73 1016.0
20260502015204 9 5 0.0 1.6 0.00 0.00 0.00 73 1016.2
20260502014702 9 6 0.0 1.6 0.00 0.00 0.00 73 1016.1
20260502014159 9 7 0.0 0.0 0.00 0.00 0.00 72 1016.0
20260502013655 9 7 1.6 1.6 0.00 0.00 0.00 72 1015.8
20260502013150 8 8 0.0 1.6 0.00 0.00 0.00 73 1015.7
20260502012648 9 4 1.6 3.2 0.00 0.00 0.00 72 1015.5
20260502012146 9 7 3.2 3.2 0.00 0.00 0.00 71 1015.5
20260502011642 9 9 0.0 1.6 0.00 0.00 0.00 72 1015.4
20260502011138 9 6 1.6 1.6 0.00 0.00 0.00 71 1015.5
20260502010636 10 4 1.6 3.2 0.00 0.00 0.00 71 1015.1
20260502010132 10 6 1.6 1.6 0.00 0.00 0.00 70 1015.0
20260502005630 10 6 1.6 3.2 0.00 0.00 0.00 69 1015.0
20260502005127 10 2 1.6 1.6 0.00 0.00 0.00 69 1015.1
20260502004623 10 2 1.6 3.2 0.00 0.00 0.00 68 1015.1
20260502004120 10 2 3.2 3.2 0.00 0.00 0.00 68 1014.9
20260502003618 11 6 3.2 3.2 0.00 0.00 0.00 64 1015.0
20260502003114 11 21 3.2 4.8 0.00 0.00 0.00 65 1014.9
20260502002610 11 14 1.6 3.2 0.00 0.00 0.00 64 1014.8
20260502002108 11 10 1.6 3.2 0.00 0.00 0.00 65 1014.8
20260502001606 11 0 3.2 3.2 0.00 0.00 0.00 62 1014.8
20260502001103 11 3 3.2 3.2 0.00 0.00 0.00 62 1014.3
20260502000601 11 7 4.8 4.8 0.00 0.00 0.00 62 1014.2
20260502000058 11 6 6.4 11.3 0.00 0.00 0.00 61 1013.7
20260501235554 12 6 6.4 8.0 0.00 0.00 0.00 61 1014.1
20260501235050 12 357 6.4 9.7 0.00 0.00 0.00 62 1013.9
20260501234545 12 2 4.8 8.0 0.00 0.00 0.00 62 1013.8
20260501234044 12 9 8.0 11.3 0.00 0.00 0.00 60 1013.8
20260501233542 12 0 8.0 11.3 0.00 0.00 0.00 61 1013.6
20260501233038 12 4 11.3 12.9 0.00 0.00 0.00 59 1013.6
20260501232534 12 349 11.3 12.9 0.00 0.00 0.00 56 1013.7
20260501232032 12 352 8.0 12.9 0.00 0.00 0.00 58 1013.6
20260501231529 13 343 8.0 11.3 0.00 0.00 0.00 56 1013.8
20260501231027 13 350 11.3 14.5 0.00 0.00 0.00 56 1013.8
20260501230526 13 352 11.3 12.9 0.00 0.00 0.00 56 1013.9
20260501230023 13 352 11.3 12.9 0.00 0.00 0.00 57 1013.9
20260501225521 13 3 8.0 12.9 0.00 0.00 0.00 57 1013.8
20260501225016 12 343 12.9 16.1 0.00 0.00 0.00 55 1013.8
20260501224515 13 334 17.7 20.9 0.00 0.00 0.00 56 1013.8
20260501224011 12 350 11.3 12.9 0.00 0.00 0.00 58 1013.6
20260501223508 13 340 9.7 11.3 0.00 0.00 0.00 58 1013.8
20260501223004 13 354 8.0 14.5 0.00 0.00 0.00 57 1013.7
20260501222500 13 347 8.0 11.3 0.00 0.00 0.00 57 1013.7
20260501221956 13 5 11.3 20.9 0.00 0.00 0.00 58 1013.5
20260501221454 13 347 11.3 14.5 0.00 0.00 0.00 56 1013.6
20260501220952 13 353 11.3 14.5 0.00 0.00 0.00 61 1013.6
20260501220449 13 343 11.3 16.1 0.00 0.00 0.00 60 1013.8
20260501215945 13 353 8.0 12.9 0.00 0.00 0.00 60 1013.8
20260501215442 13 355 16.1 16.1 0.00 0.00 0.00 57 1013.9
20260501214937 14 7 11.3 12.9 0.00 0.00 0.00 56 1013.7
20260501214433 13 356 11.3 14.5 0.00 0.00 0.00 58 1013.8
20260501213928 13 342 20.9 24.1 0.00 0.00 0.00 58 1013.7
20260501213426 13 357 9.7 14.5 0.00 0.00 0.00 60 1013.7
20260501212921 13 358 14.5 17.7 0.00 0.00 0.00 60 1013.8
20260501212418 13 333 12.9 17.7 0.00 0.00 0.00 60 1013.9
20260501211915 12 353 22.5 22.5 0.00 0.00 0.00 59 1013.7
20260501211413 12 348 16.1 25.7 0.00 0.00 0.00 62 1013.5
20260501210910 13 337 14.5 22.5 0.00 0.00 0.00 53 1013.8
20260501210406 13 342 12.9 20.9 0.00 0.00 0.00 54 1013.5
20260501205903 13 316 9.7 16.1 0.00 0.00 0.00 56 1013.5
20260501205400 13 330 9.7 16.1 0.00 0.00 0.00 54 1013.6
20260501204857 13 315 6.4 11.3 0.00 0.00 0.00 57 1013.6
20260501204353 13 348 12.9 25.7 0.00 0.00 0.00 56 1013.5
20260501203849 14 349 14.5 16.1 0.00 0.00 0.00 56 1013.5
20260501203347 13 347 12.9 16.1 0.00 0.00 0.00 56 1013.6
20260501202843 13 316 16.1 17.7 0.00 0.00 0.00 57 1013.8
20260501202341 13 332 16.1 20.9 0.00 0.00 0.00 56 1013.8
20260501201837 13 353 12.9 16.1 0.00 0.00 0.00 58 1013.7
20260501201334 14 354 17.7 22.5 0.00 0.00 0.00 53 1013.9
20260501200830 13 359 9.7 16.1 0.00 0.00 0.00 60 1013.8
20260501200328 13 330 16.1 14.5 0.00 0.00 0.00 59 1013.9
20260501195826 13 356 14.5 24.1 0.00 0.00 0.00 59 1014.1
20260501195321 15 348 11.3 16.1 0.00 0.00 0.00 58 1013.9
20260501194817 13 334 9.7 14.5 0.00 0.00 0.00 56 1013.9
20260501194314 13 346 20.9 25.7 0.00 0.00 0.00 52 1014.0
20260501193810 13 336 11.3 17.7 0.00 0.00 0.00 56 1013.8
20260501193309 14 330 14.5 16.1 0.00 0.00 0.00 53 1013.8
20260501192806 15 340 4.8 9.7 0.00 0.00 0.00 49 1013.5
20260501192306 15 332 19.3 22.5 0.00 0.00 0.00 51 1013.5
20260501191800 15 289 14.5 16.1 0.00 0.00 0.00 49 1013.6
20260501191257 15 344 12.9 20.9 0.00 0.00 0.00 56 1013.8
20260501190754 15 347 17.7 24.1 0.00 0.00 0.00 56 1013.7
20260501190249 13 334 8.0 17.7 0.00 0.00 0.00 56 1013.9
20260501185745 13 348 11.3 16.1 0.00 0.00 0.00 57 1013.6
20260501185241 15 331 16.1 17.7 0.00 0.00 0.00 59 1013.6
20260501184737 14 353 11.3 17.7 0.00 0.00 0.00 57 1013.5
20260501184232 13 343 12.9 14.5 0.00 0.00 0.00 62 1013.7
20260501183729 13 322 11.3 16.1 0.00 0.00 0.00 58 1013.8
20260501183226 13 347 17.7 17.7 0.00 0.00 0.00 61 1013.8
20260501182722 15 315 9.7 11.3 0.00 0.00 0.00 60 1014.1
20260501182220 13 333 9.7 11.3 0.00 0.00 0.00 62 1013.8
20260501181716 13 331 8.0 14.5 0.00 0.00 0.00 64 1013.8
20260501181214 13 347 17.7 20.9 0.00 0.00 0.00 61 1013.9
20260501180712 13 321 11.3 14.5 0.00 0.00 0.00 60 1013.9
20260501180207 13 348 12.9 17.7 0.00 0.00 0.00 62 1013.8
20260501175704 13 340 12.9 22.5 0.00 0.00 0.00 62 1014.0
20260501175201 13 331 14.5 17.7 0.00 0.00 0.00 54 1013.9
20260501174657 13 340 17.7 17.7 0.00 0.00 0.00 57 1013.7
20260501174155 15 340 12.9 12.9 0.00 0.00 0.00 60 1013.7
20260501173653 15 318 1.6 4.8 0.00 0.00 0.00 63 1013.8